軌道要素
Epoch 2010 Nov. 20.0 TT = JDT 2455520.5
T 2010 Nov. 10.46605 TT MPC
q 9.8828522 (2000.0) P Q
z +0.0000894 Peri. 121.77418 -0.29822656 -0.73870940
+/-0.0000023 Node 38.27589 -0.76313978 -0.19583423
e 0.9991161 Incl. 102.63074 +0.57330498 -0.64494757
From 119 observations 2010 June 15-2013 Apr. 8, mean residual 0".5.
|